Temperature
18 18 18 17 17 17 16 16 16 16 17 17 17 17 17 17 16 16 17 16 16 16 16 16 16 16 16 16 16 16 16 16 16 15 15 15 15 15 15 15 14 14 15
18 18 18 17 17 16 16 16 16 16 16 16 16 16 16 16 16 16 16 16 16 16 16 16 16 16 16 16 16 16 16 16 15 15 15 15 15 15 15 15 14 14 14
18 17 17 17 17 16 16 16 16 16 16 16 16 16 16 16 16 16 16 16 16 16 16 16 15 15 15 16 15 15 15 15 15 15 15 14 14 15 14 14 14 14 14
17 17 17 17 17 16 16 16 16 16 16 16 16 16 16 16 16 16 16 16 16 16 16 15 15 15 15 15 15 15 15 15 15 15 14 14 14 14 14 14 14 14 14
17 17 17 17 17 16 16 16 16 16 16 16 16 16 16 16 16 16 16 16 15 15 15 15 15 15 15 15 15 15 15 15 15 14 14 14 14 14 14 14 14 14 14
17 16 17 17 17 16 16 16 16 16 16 16 16 16 16 16 15 15 15 15 15 15 15 15 15 15 15 15 15 15 15 15 14 14 14 14 14 14 14 14 14 14 14
17 16 17 17 16 16 16 16 16 16 16 16 15 15 15 15 15 15 15 15 15 15 15 15 15 15 15 15 15 15 15 15 14 14 14 14 14 14 14 14 13 13 13
17 16 16 16 16 16 16 16 15 15 15 15 15 15 15 15 15 15 15 15 15 15 15 14 14 14 14 14 14 14 14 14 14 14 13 13 14 14 14 14 13 13 13
16 16 16 16 16 16 16 15 15 15 15 15 15 15 15 15 15 15 15 15 14 14 14 14 14 14 14 14 14 14 14 14 14 13 13 13 14 14 14 14 13 13 13
16 16 16 15 15 15 15 15 15 15 15 15 15 15 14 14 14 14 14 14 14 14 14 14 14 14 14 14 14 14 14 14 13 13 13 13 14 14 14 14 13 13 13
16 16 16 15 15 15 15 15 15 15 15 15 14 14 14 14 14 14 14 14 14 14 14 14 14 14 14 14 13 13 14 13 13 13 13 13 14 14 13 13 13 13 13
16 16 16 15 15 15 15 14 14 14 14 14 14 14 14 14 14 14 14 14 14 14 14 14 13 13 13 13 13 13 13 13 13 13 13 13 13 13 13 13 13 13 13
16 16 16 15 15 15 15 14 14 14 14 14 14 14 13 13 13 13 13 13 13 13 13 13 13 13 13 13 13 13 13 13 13 13 13 13 13 13 13 13 12 12 12
15 16 16 15 15 15 15 14 14 14 14 14 14 14 13 13 13 13 13 13 13 13 13 13 13 13 13 13 13 12 12 12 12 12 13 13 13 13 13 12 12 12 12
15 15 15 15 15 15 15 14 14 14 14 14 14 14 13 13 13 13 13 13 13 13 13 13 13 13 13 12 12 12 12 12 12 12 12 13 13 12 12 12 12 12 12
15 15 15 15 15 15 15 14 14 14 14 14 14 14 13 13 13 13 13 13 12 12 12 12 12 12 12 12 12 12 12 12 12 12 12 12 12 12 12 12 12 12 11
15 15 15 15 15 15 14 14 14 14 14 14 13 13 13 13 13 13 12 12 12 12 12 12 12 12 12 12 12 12 12 12 12 12 12 12 12 12 12 12 11 11 11
15 15 15 15 15 15 14 14 14 14 13 13 13 13 13 13 12 12 12 12 12 12 12 12 11 11 11 11 11 11 11 11 11 11 11 11 11 11 11 11 11 11 11
14 14 15 15 15 14 14 14 13 13 13 13 13 13 12 12 12 12 12 12 12 11 11 11 11 11 11 11 11 11 11 11 11 11 11 11 11 11 11 11 11 11 11
14 14 14 14 14 14 14 13 13 13 13 12 12 12 12 12 12 12 11 11 11 11 11 11 11 11 10 10 10 10 10 10 10 10 10 10 10 10 10 10 10 10 10
14 14 14 14 14 14 13 13 13 13 12 12 12 12 12 12 11 11 11 11 11 10 10 10 10 10 10 10 10 9 9 10 9 10 9 9 9 9 9 9 9 9 9
13 14 14 14 13 13 13 13 13 13 12 12 12 12 11 11 11 11 11 11 10 10 10 10 10 9 9 9 9 8 9 9 9 9 9 9 9 9 9 9 8 8 9
13 13 13 13 13 13 13 13 12 12 12 11 11 11 11 11 11 11 10 10 10 10 10 9 9 9 9 8 8 7 8 9 8 8 8 8 8 8 8 8 8 8 8
13 13 13 13 13 12 12 12 12 12 11 11 11 11 11 10 10 10 10 10 9 9 9 9 9 8 8 8 7 7 7 7 7 7 8 8 7 7 7 7 7 7 7
12 12 12 12 12 12 12 12 12 11 11 11 10 10 10 10 10 10 10 9 9 9 9 8 8 8 7 7 7 7 6 6 6 6 6 7 7 7 7 7 6 7 7
12 12 12 12 12 12 12 11 11 11 11 10 10 10 9 9 9 9 9 9 8 8 8 8 7 7 7 7 6 6 6 5 5 5 5 5 6 6 6 6 6 6 6
Wind_Speed
5 8 9 8 9 10 10 10 10 10 10 11 10 10 10 9 9 9 8 8 8 8 8 8 7 8 8 8 8 7 7 7 7 7 7 7 7 7 6 5 3 5 6
7 10 10 9 10 10 10 10 10 10 10 10 10 10 9 9 9 8 8 7 7 7 7 7 7 7 7 7 7 7 7 7 7 7 6 6 7 6 5 4 3 4 5
8 10 11 9 10 10 10 10 10 10 9 9 9 9 9 8 8 7 7 6 6 6 6 6 6 6 6 7 7 7 7 7 7 6 4 4 6 5 4 4 4 4 3
9 10 10 10 10 10 10 10 10 9 9 9 8 8 8 8 7 7 6 6 6 5 5 5 5 6 6 6 6 6 6 6 5 3 2 2 3 4 3 3 3 3 2
9 10 10 10 10 10 10 10 9 9 8 8 8 7 7 7 7 6 6 6 5 5 5 5 5 5 5 5 5 5 5 5 4 3 2 1 1 3 1 2 2 2 2
10 10 11 9 10 9 9 9 9 9 8 7 7 6 6 6 7 6 5 5 5 5 4 4 4 4 4 4 4 4 4 4 4 2 1 1 1 2 1 2 2 2 3
9 9 11 9 9 8 8 8 8 8 8 7 6 6 6 6 6 5 5 5 5 4 4 4 4 4 4 3 3 3 3 3 3 2 1 1 1 1 2 2 3 3 3
9 8 10 9 8 8 8 7 7 7 7 7 6 5 5 5 5 5 4 4 4 4 3 3 3 3 2 2 2 2 3 3 3 3 3 2 1 2 3 3 3 3 3
7 7 8 9 9 8 7 6 6 6 6 5 5 4 4 4 4 4 4 4 4 3 3 2 2 2 2 2 2 2 3 4 5 3 3 3 2 4 5 5 5 5 5
6 6 6 7 8 8 8 7 6 5 5 5 4 4 4 4 4 4 4 4 4 3 2 2 2 2 2 3 3 3 4 5 5 4 4 3 3 6 6 6 7 6 6
5 5 6 6 6 7 7 7 7 6 5 4 4 4 4 4 4 4 3 4 4 3 3 2 3 3 4 4 4 4 5 5 4 4 4 2 5 7 8 8 8 8 8
7 7 6 6 6 6 5 6 5 5 5 5 4 4 4 3 2 2 3 3 3 3 4 3 4 4 5 4 5 6 5 5 4 4 4 3 6 8 9 9 9 10 10
7 7 6 6 6 6 5 5 4 4 4 4 4 4 3 3 2 2 2 3 4 4 3 3 4 4 4 4 4 5 5 5 4 4 4 4 7 9 9 10 10 10 11
7 7 7 7 6 6 5 4 4 4 3 3 4 4 3 2 2 2 2 2 2 3 2 3 3 3 4 5 5 5 5 5 5 5 5 5 8 10 10 10 11 11 12
8 8 8 8 7 6 5 4 4 4 3 4 3 4 3 2 2 2 1 1 2 2 3 3 3 3 4 4 5 5 6 6 7 6 6 6 8 10 11 11 11 12 12
9 9 8 8 8 7 6 6 5 4 4 3 3 3 4 3 2 2 1 1 2 2 2 3 3 3 4 4 5 6 6 6 7 7 7 6 8 10 10 11 11 11 12
9 8 8 8 8 8 7 7 5 5 5 4 3 4 4 3 2 2 2 2 1 2 2 3 3 4 4 4 5 6 6 6 7 7 7 7 7 9 10 11 12 12 12
8 8 8 7 8 8 7 7 5 5 4 4 4 3 4 3 3 2 1 2 2 2 2 2 3 3 4 4 5 5 5 6 7 7 7 7 7 7 9 10 11 12 13
9 9 8 9 9 9 8 6 5 4 4 3 3 3 3 3 3 2 1 1 2 1 2 2 3 4 4 5 5 6 6 6 6 7 7 7 7 8 8 8 10 12 12
8 8 9 9 9 8 7 6 5 4 3 3 3 3 3 3 3 2 1 2 2 2 2 2 3 4 4 5 6 6 6 6 6 6 7 6 6 7 8 9 9 9 11
8 8 9 9 9 8 7 6 6 5 4 3 2 3 3 3 3 2 2 2 2 2 3 3 3 4 4 4 5 6 6 6 6 5 6 6 6 7 8 8 8 8 8
8 8 9 9 9 9 8 7 5 5 4 3 2 2 3 3 3 2 3 2 2 2 3 3 3 3 3 3 4 5 5 5 5 5 6 6 7 6 7 8 9 9 9
8 8 8 9 9 9 9 7 6 4 4 3 3 2 2 3 3 3 3 2 2 3 2 3 4 4 4 3 4 4 5 5 5 5 6 7 7 7 7 7 9 9 10
7 6 7 8 8 9 9 9 9 7 6 5 4 3 2 2 3 2 2 3 3 2 3 3 4 4 5 4 4 5 6 6 6 6 5 6 8 8 8 8 8 9 10
6 6 6 7 8 9 9 9 9 7 6 4 4 4 3 2 2 2 2 2 3 2 3 3 4 4 4 5 5 5 6 6 8 8 9 8 8 8 8 9 8 8 9
5 5 6 7 7 8 9 9 9 9 8 7 6 5 3 2 2 2 2 2 3 3 3 4 4 5 5 6 5 5 5 6 6 7 10 10 9 8 9 8 8 8 8
Wind_Direction
152 152 144 149 141 134 128 125 120 120 121 124 125 124 122 120 117 115 115 113 108 105 104 103 100 96 96 95 95 97 101 103 103 105 108 109 110 109 105 112 125 110 100
146 151 144 147 142 137 132 128 125 123 123 124 125 126 125 122 121 118 117 116 115 112 107 106 103 97 95 97 98 100 101 100 98 99 109 123 119 112 106 108 81 89 107
142 148 148 144 143 140 136 132 129 127 124 125 124 125 126 124 122 121 120 119 119 117 113 111 106 101 101 99 101 102 104 105 103 109 152 144 130 121 115 121 121 116 123
141 146 145 140 143 140 141 136 133 129 127 127 127 127 127 127 124 121 120 121 121 118 113 108 105 104 106 106 104 108 109 108 109 142 154 111 126 118 138 140 142 147 144
141 144 136 139 144 142 141 140 136 133 130 129 129 129 131 130 126 123 119 119 118 113 110 106 105 107 109 114 114 115 120 118 131 180 114 99 105 105 143 168 176 169 179
144 145 137 142 145 143 140 141 139 138 137 136 133 132 133 135 131 125 122 123 120 113 110 112 113 112 114 123 132 130 127 137 183 175 159 181 163 131 226 220 212 207 214
144 145 142 141 144 144 144 142 144 145 143 142 139 138 139 139 138 134 131 129 129 125 120 117 123 122 121 130 139 141 145 162 224 215 219 225 191 202 237 228 226 231 233
145 147 146 144 144 145 144 144 145 149 148 146 146 149 151 149 145 146 145 143 135 133 134 132 134 136 138 145 147 157 167 201 239 237 233 233 198 222 238 240 237 239 245
147 150 152 159 159 155 148 144 141 143 148 147 152 159 158 154 153 157 153 151 143 137 142 150 154 164 174 173 173 178 179 217 245 240 238 237 202 238 245 246 245 247 248
153 160 160 164 168 170 165 153 146 140 140 146 155 166 161 161 163 158 164 158 158 159 161 182 198 199 198 202 199 194 198 222 242 243 243 234 219 242 246 248 247 248 250
167 174 174 174 172 174 172 161 162 158 152 159 165 160 178 192 188 180 175 151 173 187 200 221 234 219 220 212 205 206 212 233 248 254 251 256 248 250 251 252 252 251 251
181 183 185 185 180 178 174 173 181 181 177 188 189 178 192 194 190 194 154 170 194 210 220 229 239 231 234 235 214 212 230 245 251 254 253 256 261 260 257 256 256 257 255
189 186 192 190 187 184 180 180 180 183 184 192 193 188 191 192 189 199 198 191 209 219 229 222 236 243 249 248 245 237 247 251 250 255 253 248 263 266 266 262 259 260 259
199 197 195 193 190 189 187 182 183 183 183 184 190 194 193 197 212 207 218 224 231 233 245 249 253 255 260 260 254 252 250 252 254 257 258 244 260 266 266 270 267 264 263
208 202 197 194 191 188 187 184 184 189 187 183 184 192 198 206 218 216 227 228 245 248 247 261 266 267 268 269 264 259 256 256 258 260 261 243 253 264 265 268 271 269 266
214 207 198 195 192 188 188 186 185 185 183 188 184 192 201 207 213 218 229 238 252 253 259 265 274 273 271 272 271 266 262 262 260 261 266 258 246 255 263 265 269 273 271
217 208 198 194 191 189 190 188 184 185 184 185 188 197 202 208 208 208 233 239 253 258 263 264 271 274 275 272 271 270 266 266 267 265 265 266 259 249 254 263 267 269 272
215 207 197 189 191 189 189 187 184 185 184 185 191 195 201 204 203 204 228 248 259 254 261 265 269 273 276 277 275 274 269 265 264 267 267 264 266 265 257 256 264 268 269
213 203 195 191 191 189 187 183 180 179 181 180 182 185 190 195 200 198 217 244 247 255 265 270 272 273 279 283 283 279 274 267 263 260 260 263 266 268 268 261 259 263 268
210 201 195 191 190 183 178 174 172 173 176 175 174 175 181 186 191 196 206 229 239 239 252 262 267 273 278 284 283 281 276 270 262 259 261 263 265 266 267 268 265 261 260
202 197 194 191 185 179 177 177 179 181 179 174 172 174 180 181 183 190 209 222 235 237 250 263 268 273 282 290 281 283 275 263 259 259 263 265 266 266 268 270 269 271 268
200 197 196 193 189 187 185 183 183 177 179 175 170 178 185 183 185 191 211 219 227 236 248 256 261 267 275 282 280 285 282 266 254 262 265 266 269 268 269 272 271 270 274
200 199 197 195 191 188 182 174 166 164 169 177 183 187 191 188 194 197 210 223 230 237 245 252 256 259 267 272 275 271 278 276 292 261 262 267 270 273 277 277 274 275 276
201 194 194 193 191 187 182 182 180 184 186 196 190 189 196 201 204 205 216 227 234 242 249 255 259 262 262 263 263 262 267 279 279 282 271 268 274 273 274 275 275 274 276
194 190 188 187 187 186 186 185 185 186 185 180 180 183 193 208 215 216 223 235 240 246 252 258 261 261 260 260 261 263 265 269 266 271 281 287 282 275 277 274 274 275 276
187 182 183 182 185 184 184 184 186 184 182 180 184 188 195 205 223 235 242 245 246 251 254 257 258 258 260 262 262 260 262 263 267 267 273 281 284 284 281 275 272 273 278
Height
1511 1511 1512 1514 1515 1517 1518 1519 1520 1521 1522 1523 1523 1524 1524 1525 1525 1525 1526 1526 1526 1526 1526 1527 1527 1527 1527 1526 1526 1526 1526 1526 1526 1526 1526 1526 1527 1527 1527 1527 1527 1528 1527
1510 1511 1512 1514 1516 1517 1518 1519 1520 1521 1522 1523 1524 1524 1525 1525 1525 1526 1526 1526 1526 1526 1526 1527 1527 1527 1527 1527 1526 1526 1526 1526 1526 1526 1527 1527 1527 1527 1527 1527 1527 1528 1527
1510 1511 1513 1514 1516 1517 1518 1520 1521 1522 1523 1523 1524 1525 1525 1525 1526 1526 1526 1526 1526 1526 1526 1527 1527 1527 1527 1527 1527 1527 1527 1527 1527 1527 1527 1528 1528 1527 1527 1527 1527 1527 1527
1511 1512 1513 1514 1516 1517 1519 1520 1521 1522 1523 1523 1524 1524 1525 1525 1526 1526 1526 1526 1526 1526 1526 1526 1527 1527 1527 1527 1527 1527 1527 1527 1527 1527 1528 1528 1528 1527 1527 1527 1527 1527 1527
1511 1512 1513 1515 1516 1517 1519 1520 1521 1521 1522 1523 1524 1524 1525 1525 1525 1526 1526 1526 1526 1526 1526 1526 1526 1526 1527 1527 1527 1527 1527 1527 1527 1527 1528 1528 1528 1527 1527 1527 1527 1527 1527
1512 1513 1514 1515 1516 1517 1518 1519 1520 1521 1522 1522 1523 1524 1524 1525 1525 1525 1526 1526 1526 1526 1526 1526 1526 1526 1526 1526 1527 1527 1526 1527 1527 1527 1527 1527 1527 1526 1526 1526 1526 1526 1526
1512 1513 1514 1515 1516 1517 1518 1519 1520 1520 1521 1522 1522 1523 1524 1524 1525 1525 1525 1525 1525 1525 1525 1525 1526 1526 1526 1526 1526 1526 1526 1526 1526 1527 1526 1526 1526 1525 1525 1525 1525 1525 1525
1512 1513 1514 1514 1516 1517 1518 1518 1519 1520 1520 1521 1522 1522 1523 1523 1524 1524 1524 1524 1524 1525 1525 1525 1525 1525 1525 1525 1525 1525 1525 1525 1525 1525 1525 1525 1524 1524 1524 1524 1524 1524 1524
1511 1512 1513 1514 1515 1516 1517 1518 1518 1519 1519 1520 1521 1521 1522 1522 1523 1523 1523 1524 1524 1524 1524 1524 1524 1524 1524 1524 1524 1524 1524 1524 1524 1524 1524 1524 1523 1523 1523 1522 1522 1522 1522
1510 1511 1512 1513 1514 1515 1516 1517 1517 1518 1518 1519 1520 1520 1520 1521 1521 1522 1522 1522 1522 1523 1523 1523 1523 1523 1523 1523 1522 1522 1522 1523 1523 1523 1522 1522 1521 1521 1521 1521 1521 1521 1520
1509 1510 1511 1512 1513 1514 1515 1516 1516 1517 1517 1518 1518 1519 1519 1520 1520 1520 1521 1521 1521 1521 1521 1521 1521 1521 1521 1521 1521 1521 1521 1521 1521 1521 1520 1520 1519 1519 1519 1519 1519 1519 1518
1508 1509 1510 1511 1512 1513 1513 1514 1515 1515 1516 1517 1517 1517 1518 1519 1519 1519 1519 1519 1519 1519 1519 1519 1519 1519 1519 1519 1519 1518 1519 1519 1519 1518 1518 1517 1517 1517 1517 1516 1516 1516 1516
1506 1507 1508 1509 1510 1511 1512 1512 1513 1514 1514 1515 1516 1516 1516 1517 1517 1517 1517 1517 1517 1517 1517 1517 1517 1517 1517 1517 1516 1516 1516 1516 1516 1515 1515 1515 1514 1514 1514 1513 1513 1513 1513
1504 1505 1506 1507 1508 1509 1510 1511 1511 1512 1513 1513 1513 1514 1515 1515 1515 1515 1515 1515 1515 1515 1515 1515 1515 1515 1514 1514 1514 1514 1514 1513 1513 1512 1512 1512 1511 1511 1511 1510 1510 1510 1509
1501 1502 1503 1504 1505 1506 1507 1508 1509 1510 1511 1511 1512 1512 1512 1513 1513 1513 1513 1513 1513 1513 1513 1513 1513 1512 1512 1512 1511 1511 1511 1511 1510 1509 1509 1508 1508 1507 1507 1507 1506 1506 1506
1498 1499 1500 1501 1503 1504 1505 1506 1507 1508 1508 1509 1509 1510 1510 1510 1510 1510 1511 1511 1511 1511 1511 1510 1510 1510 1509 1509 1509 1508 1508 1508 1507 1506 1505 1504 1504 1504 1503 1503 1502 1502 1501
1494 1496 1497 1498 1500 1501 1502 1504 1505 1505 1506 1507 1507 1507 1508 1508 1508 1508 1508 1508 1508 1508 1508 1508 1508 1507 1507 1506 1506 1505 1505 1504 1503 1503 1502 1501 1500 1499 1499 1498 1498 1498 1497
1490 1492 1493 1495 1497 1498 1499 1501 1502 1503 1503 1504 1504 1505 1505 1505 1506 1506 1506 1506 1506 1506 1505 1505 1505 1504 1504 1503 1503 1502 1501 1500 1500 1499 1498 1497 1496 1495 1495 1494 1493 1493 1492
1486 1488 1489 1491 1493 1495 1496 1498 1499 1500 1501 1501 1502 1502 1503 1503 1503 1503 1503 1503 1503 1503 1502 1502 1502 1502 1501 1500 1499 1498 1498 1496 1496 1495 1494 1493 1492 1491 1490 1489 1489 1488 1487
1482 1484 1485 1487 1489 1491 1493 1494 1495 1496 1497 1498 1499 1499 1500 1500 1500 1500 1500 1500 1500 1500 1500 1499 1499 1498 1498 1497 1496 1495 1494 1492 1491 1490 1489 1488 1487 1486 1485 1484 1484 1483 1482
1478 1479 1481 1483 1485 1487 1488 1490 1491 1492 1494 1495 1496 1496 1497 1497 1497 1497 1497 1497 1497 1497 1497 1496 1496 1495 1494 1494 1493 1491 1490 1488 1487 1486 1485 1484 1483 1482 1481 1480 1479 1478 1477
1473 1475 1477 1479 1481 1483 1484 1486 1488 1489 1490 1491 1492 1493 1494 1494 1494 1494 1494 1494 1494 1494 1494 1493 1492 1492 1491 1490 1490 1489 1487 1486 1483 1482 1481 1479 1478 1478 1476 1475 1474 1472 1471
1469 1471 1473 1475 1477 1479 1481 1483 1485 1486 1487 1488 1489 1490 1490 1491 1491 1491 1491 1491 1491 1491 1490 1489 1489 1489 1488 1487 1487 1487 1485 1482 1480 1477 1476 1475 1474 1473 1471 1470 1469 1467 1466
1465 1467 1469 1471 1473 1475 1477 1479 1480 1481 1483 1484 1485 1486 1487 1488 1488 1488 1488 1488 1488 1487 1486 1486 1486 1485 1484 1483 1483 1482 1482 1480 1479 1474 1472 1471 1469 1468 1466 1465 1463 1462 1461
1461 1463 1465 1468 1470 1471 1473 1475 1477 1478 1480 1481 1482 1483 1484 1484 1485 1485 1485 1484 1484 1483 1483 1482 1482 1481 1480 1479 1479 1478 1477 1476 1474 1473 1468 1466 1465 1463 1462 1460 1458 1457 1455
1458 1460 1462 1464 1466 1468 1469 1471 1473 1475 1476 1477 1478 1479 1480 1481 1481 1481 1481 1481 1480 1480 1479 1478 1478 1477 1476 1475 1474 1473 1472 1471 1469 1468 1465 1462 1459 1457 1456 1455 1453 1451 1449